isotime,frequency
2022-11-30 15:39:37.500,-826.0588674545288
2022-11-30 15:39:38.500,-825.9391674995422
2022-11-30 15:39:39.500,-826.0694675445557
2022-11-30 15:39:40.500,-825.9497680664062
2022-11-30 15:39:41.500,-826.0800681114197
2022-11-30 15:39:42.500,-825.9603681564331
2022-11-30 15:39:43.500,-826.0906682014465
2022-11-30 15:39:44.500,-825.9709687232971
2022-11-30 15:39:45.500,-826.1012687683105
2022-11-30 15:39:46.500,-825.981568813324
2022-11-30 15:39:47.500,-826.1118688583374
2022-11-30 15:39:48.500,-825.992169380188
2022-11-30 15:39:49.500,-826.1224694252014
2022-11-30 15:39:50.500,-826.0027694702148
2022-11-30 15:39:51.500,-826.1330695152283
2022-11-30 15:39:52.500,-826.0133695602417
2022-11-30 15:39:53.500,-826.1436700820923
2022-11-30 15:39:54.500,-826.0239701271057
2022-11-30 15:39:55.500,-826.1542701721191
2022-11-30 15:39:56.500,-826.0345702171326
2022-11-30 15:39:57.500,-826.164870262146
2022-11-30 15:39:58.500,-826.0451707839966
2022-11-30 15:39:59.500,-826.17547082901
2022-11-30 15:40:00.500,-826.0556535720825
2022-11-30 15:40:01.500,-826.1857194900513
2022-11-30 15:40:02.500,-826.06578540802
2022-11-30 15:40:03.500,-826.4458513259888
2022-11-30 15:40:04.500,-826.0759172439575
2022-11-30 15:40:05.500,-826.2059831619263
2022-11-30 15:40:06.500,-826.086049079895
2022-11-30 15:40:07.500,-826.2161149978638
2022-11-30 15:40:08.500,-826.0961804389954
2022-11-30 15:40:09.500,-826.2262463569641
2022-11-30 15:40:10.500,-826.1063122749329
2022-11-30 15:40:11.500,-826.2363781929016
2022-11-30 15:40:12.500,-826.1164441108704
2022-11-30 15:40:13.500,-826.4965100288391
2022-11-30 15:40:14.500,-826.1265759468079
2022-11-30 15:40:15.500,-826.0066418647766
2022-11-30 15:40:16.500,-826.1367077827454
2022-11-30 15:40:17.500,-826.016773223877
2022-11-30 15:40:18.500,-826.1468391418457
2022-11-30 15:40:19.500,-826.2769050598145
2022-11-30 15:40:20.500,-826.1569709777832
2022-11-30 15:40:21.500,-826.287036895752
2022-11-30 15:40:22.500,-826.1671028137207
2022-11-30 15:40:23.500,-826.2971687316895
2022-11-30 15:40:24.500,-826.1772346496582
2022-11-30 15:40:25.500,-826.5573000907898
2022-11-30 15:40:26.500,-826.1873660087585
2022-11-30 15:40:27.500,-826.0674319267273
2022-11-30 15:40:28.500,-826.197497844696
2022-11-30 15:40:29.500,-826.0775637626648
2022-11-30 15:40:30.500,-826.2076296806335
2022-11-30 15:40:31.500,-826.0876955986023
2022-11-30 15:40:32.500,-826.217761516571
2022-11-30 15:40:33.500,-826.3478274345398
2022-11-30 15:40:34.500,-826.2278928756714
2022-11-30 15:40:35.500,-826.1079587936401
2022-11-30 15:40:36.500,-826.2380247116089
2022-11-30 15:40:37.500,-826.1180906295776
2022-11-30 15:40:38.500,-826.2481565475464
2022-11-30 15:40:39.500,-826.1282224655151
2022-11-30 15:40:40.500,-826.2582883834839
2022-11-30 15:40:41.500,-826.1383543014526
2022-11-30 15:40:42.500,-826.2684202194214
2022-11-30 15:40:43.500,-826.398485660553
2022-11-30 15:40:44.500,-826.2785515785217
2022-11-30 15:40:45.500,-826.1586174964905
2022-11-30 15:40:46.500,-826.2886834144592
2022-11-30 15:40:47.500,-826.168749332428
2022-11-30 15:40:48.500,-826.2988152503967
2022-11-30 15:40:49.500,-826.1788811683655
2022-11-30 15:40:50.500,-826.3089470863342
2022-11-30 15:40:51.500,-826.1890125274658
2022-11-30 15:40:52.500,-826.3190784454346
2022-11-30 15:40:53.500,-826.1991443634033
2022-11-30 15:40:54.500,-826.3292102813721
2022-11-30 15:40:55.500,-826.2092761993408
2022-11-30 15:40:56.500,-826.3393421173096
2022-11-30 15:40:57.500,-826.2194080352783
2022-11-30 15:40:58.500,-826.3494739532471
2022-11-30 15:40:59.500,-826.2295398712158
2022-11-30 15:41:00.500,-826.3594946861267
2022-11-30 15:41:01.500,-826.2393388748169
2022-11-30 15:41:02.500,-826.3691830635071
2022-11-30 15:41:03.500,-826.2490272521973
2022-11-30 15:41:04.500,-826.3788714408875
2022-11-30 15:41:05.500,-826.2587156295776
2022-11-30 15:41:06.500,-826.3885598182678
2022-11-30 15:41:07.500,-826.268404006958
2022-11-30 15:41:08.500,-826.3982486724854
2022-11-30 15:41:09.500,-826.2780928611755
2022-11-30 15:41:10.500,-826.4079370498657
2022-11-30 15:41:11.500,-826.2877812385559
2022-11-30 15:41:12.500,-826.4176254272461
2022-11-30 15:41:13.500,-826.2974696159363
2022-11-30 15:41:14.500,-826.4273138046265
2022-11-30 15:41:15.500,-826.3071579933167
2022-11-30 15:41:16.500,-826.4370021820068
2022-11-30 15:41:17.500,-826.316846370697
2022-11-30 15:41:18.500,-826.4466905593872
2022-11-30 15:41:19.500,-826.3265347480774
2022-11-30 15:41:20.500,-826.4563789367676
2022-11-30 15:41:21.500,-826.3362231254578
2022-11-30 15:41:22.500,-826.4660677909851
2022-11-30 15:41:23.500,-826.3459119796753
2022-11-30 15:41:24.500,-826.4757561683655
2022-11-30 15:41:25.500,-826.3556003570557
2022-11-30 15:41:26.500,-826.4854445457458
2022-11-30 15:41:27.500,-826.365288734436
2022-11-30 15:41:28.500,-826.4951329231262
2022-11-30 15:41:29.500,-826.3749771118164
2022-11-30 15:41:30.500,-826.5048213005066
2022-11-30 15:41:31.500,-826.3846654891968
2022-11-30 15:41:32.500,-826.514509677887
2022-11-30 15:41:33.500,-826.3943538665771
2022-11-30 15:41:34.500,-826.5241980552673
2022-11-30 15:41:35.500,-826.4040422439575
2022-11-30 15:41:36.500,-826.5338869094849
2022-11-30 15:41:37.500,-826.413731098175
2022-11-30 15:41:38.500,-826.5435752868652
2022-11-30 15:41:39.500,-826.4234194755554
2022-11-30 15:41:40.500,-826.8032636642456
2022-11-30 15:41:41.500,-826.4331078529358
2022-11-30 15:41:42.500,-826.562952041626
2022-11-30 15:41:43.500,-826.4427962303162
2022-11-30 15:41:44.500,-826.5726404190063
2022-11-30 15:41:45.500,-826.4524846076965
2022-11-30 15:41:46.500,-826.5823287963867
2022-11-30 15:41:47.500,-826.4621729850769
2022-11-30 15:41:48.500,-826.5920171737671
2022-11-30 15:41:49.500,-826.4718618392944
2022-11-30 15:41:50.500,-826.8517060279846
2022-11-30 15:41:51.500,-826.4815502166748
2022-11-30 15:41:52.500,-826.611394405365
2022-11-30 15:41:53.500,-826.4912385940552
2022-11-30 15:41:54.500,-826.6210827827454
2022-11-30 15:41:55.500,-826.5009269714355
2022-11-30 15:41:56.500,-826.6307711601257
2022-11-30 15:41:57.500,-826.5106153488159
2022-11-30 15:41:58.500,-826.6404595375061
2022-11-30 15:41:59.500,-826.5203037261963
2022-11-30 15:42:00.500,-826.9000248908997
2022-11-30 15:42:01.500,-826.529622554779
2022-11-30 15:42:02.500,-826.4092202186584
2022-11-30 15:42:03.500,-826.5388178825378
2022-11-30 15:42:04.500,-826.6684155464172
2022-11-30 15:42:05.500,-826.5480132102966
2022-11-30 15:42:06.500,-826.677610874176
2022-11-30 15:42:07.500,-826.5572085380554
2022-11-30 15:42:08.500,-826.6868062019348
2022-11-30 15:42:09.500,-826.5664038658142
2022-11-30 15:42:10.500,-826.9460015296936
2022-11-30 15:42:11.500,-826.575599193573
2022-11-30 15:42:12.500,-826.7051968574524
2022-11-30 15:42:13.500,-826.5847945213318
2022-11-30 15:42:14.500,-826.7143921852112
2022-11-30 15:42:15.500,-826.5939898490906
2022-11-30 15:42:16.500,-826.72358751297
2022-11-30 15:42:17.500,-826.6031851768494
2022-11-30 15:42:18.500,-826.7327828407288
2022-11-30 15:42:19.500,-826.6123805046082
2022-11-30 15:42:20.500,-826.9919781684875
2022-11-30 15:42:21.500,-826.6215763092041
2022-11-30 15:42:22.500,-826.5011739730835
2022-11-30 15:42:23.500,-826.6307711601257
2022-11-30 15:42:24.500,-826.7603693008423
2022-11-30 15:42:25.500,-826.6399669647217
2022-11-30 15:42:26.500,-826.7695646286011
2022-11-30 15:42:27.500,-826.6491622924805
2022-11-30 15:42:28.500,-826.7787599563599
2022-11-30 15:42:29.500,-826.6583576202393
2022-11-30 15:42:30.500,-827.0379552841187
2022-11-30 15:42:31.500,-826.667552947998
2022-11-30 15:42:32.500,-826.5471506118774
2022-11-30 15:42:33.500,-826.6767482757568
2022-11-30 15:42:34.500,-826.8063459396362
2022-11-30 15:42:35.500,-826.6859436035156
2022-11-30 15:42:36.500,-826.815541267395
2022-11-30 15:42:37.500,-826.6951389312744
2022-11-30 15:42:38.500,-826.8247365951538
2022-11-30 15:42:39.500,-826.7043342590332
2022-11-30 15:42:40.500,-827.0839319229126
2022-11-30 15:42:41.500,-826.713529586792
2022-11-30 15:42:42.500,-826.5931272506714
2022-11-30 15:42:43.500,-826.7227249145508
2022-11-30 15:42:44.500,-826.8523225784302
2022-11-30 15:42:45.500,-826.7319202423096
2022-11-30 15:42:46.500,-826.861517906189
2022-11-30 15:42:47.500,-826.7411155700684
2022-11-30 15:42:48.500,-826.8707132339478
2022-11-30 15:42:49.500,-826.7503108978271
2022-11-30 15:42:50.500,-826.8799085617065
2022-11-30 15:42:51.500,-826.7595067024231
2022-11-30 15:42:52.500,-826.8891043663025
2022-11-30 15:42:53.500,-826.7687020301819
2022-11-30 15:42:54.500,-826.8982996940613
2022-11-30 15:42:55.500,-826.7778973579407
2022-11-30 15:42:56.500,-826.9074950218201
2022-11-30 15:42:57.500,-826.7870926856995
2022-11-30 15:42:58.500,-827.1666903495789
2022-11-30 15:42:59.500,-826.7962880134583
2022-11-30 15:43:00.500,-826.6757745742798
2022-11-30 15:43:01.500,-826.8051505088806
2022-11-30 15:43:02.500,-826.9345269203186
2022-11-30 15:43:03.500,-826.8139028549194
2022-11-30 15:43:04.500,-826.9432787895203
2022-11-30 15:43:05.500,-826.8226547241211
2022-11-30 15:43:06.500,-826.9520306587219
2022-11-30 15:43:07.500,-826.8314065933228
2022-11-30 15:43:08.500,-827.2107825279236
2022-11-30 15:43:09.500,-826.8401584625244
2022-11-30 15:43:10.500,-826.7195343971252
2022-11-30 15:43:11.500,-826.8489103317261
2022-11-30 15:43:12.500,-826.9782862663269
2022-11-30 15:43:13.500,-826.8576622009277
2022-11-30 15:43:14.500,-826.9870381355286
2022-11-30 15:43:15.500,-826.8664140701294
2022-11-30 15:43:16.500,-826.9957900047302
2022-11-30 15:43:17.500,-826.875165939331
2022-11-30 15:43:18.500,-827.004542350769
2022-11-30 15:43:19.500,-826.8839182853699
2022-11-30 15:43:20.500,-827.0132942199707
2022-11-30 15:43:21.500,-826.8926701545715
2022-11-30 15:43:22.500,-827.0220460891724
2022-11-30 15:43:23.500,-826.9014220237732
2022-11-30 15:43:24.500,-827.030797958374
2022-11-30 15:43:25.500,-826.9101738929749
2022-11-30 15:43:26.500,-827.2895498275757
2022-11-30 15:43:27.500,-826.9189257621765
2022-11-30 15:43:28.500,-827.0483016967773
2022-11-30 15:43:29.500,-826.9276776313782
2022-11-30 15:43:30.500,-827.057053565979
2022-11-30 15:43:31.500,-826.936429977417
2022-11-30 15:43:32.500,-827.0658059120178
2022-11-30 15:43:33.500,-826.9451818466187
2022-11-30 15:43:34.500,-827.0745577812195
2022-11-30 15:43:35.500,-826.9539337158203
2022-11-30 15:43:36.500,-827.3333096504211
2022-11-30 15:43:37.500,-826.962685585022
2022-11-30 15:43:38.500,-827.0920615196228
2022-11-30 15:43:39.500,-826.9714374542236
2022-11-30 15:43:40.500,-827.1008133888245
2022-11-30 15:43:41.500,-826.9801893234253
2022-11-30 15:43:42.500,-827.1095652580261
2022-11-30 15:43:43.500,-826.988941192627
2022-11-30 15:43:44.500,-827.3683171272278
2022-11-30 15:43:45.500,-826.9976935386658
2022-11-30 15:43:46.500,-827.1270694732666
2022-11-30 15:43:47.500,-827.0064454078674
2022-11-30 15:43:48.500,-827.1358213424683
2022-11-30 15:43:49.500,-827.0151972770691
2022-11-30 15:43:50.500,-827.1445732116699
2022-11-30 15:43:51.500,-827.0239491462708
2022-11-30 15:43:52.500,-827.1533250808716
2022-11-30 15:43:53.500,-827.0327010154724
2022-11-30 15:43:54.500,-827.4120769500732
2022-11-30 15:43:55.500,-827.0414528846741
2022-11-30 15:43:56.500,-827.1708288192749
2022-11-30 15:43:57.500,-827.0502047538757
2022-11-30 15:43:58.500,-827.1795811653137
2022-11-30 15:43:59.500,-827.0589570999146
2022-11-30 15:44:00.500,-827.1882219314575
2022-11-30 15:44:01.500,-827.0673761367798
2022-11-30 15:44:02.500,-827.1965298652649
2022-11-30 15:44:03.500,-827.0756840705872
2022-11-30 15:44:04.500,-827.2048377990723
2022-11-30 15:44:05.500,-827.0839920043945
2022-11-30 15:44:06.500,-827.2131457328796
2022-11-30 15:44:07.500,-827.0922999382019
2022-11-30 15:44:08.500,-827.221453666687
2022-11-30 15:44:09.500,-827.1006078720093
2022-11-30 15:44:10.500,-827.2297620773315
2022-11-30 15:44:11.500,-827.1089158058167
2022-11-30 15:44:12.500,-827.2380700111389
2022-11-30 15:44:13.500,-827.117223739624
2022-11-30 15:44:14.500,-827.2463779449463
2022-11-30 15:44:15.500,-827.1255321502686
2022-11-30 15:44:16.500,-827.2546858787537
2022-11-30 15:44:17.500,-827.1338400840759
2022-11-30 15:44:18.500,-827.262993812561
2022-11-30 15:44:19.500,-827.1421480178833
2022-11-30 15:44:20.500,-827.2713022232056
2022-11-30 15:44:21.500,-827.1504559516907
2022-11-30 15:44:22.500,-827.2796101570129
2022-11-30 15:44:23.500,-827.158763885498
2022-11-30 15:44:24.500,-827.2879180908203
2022-11-30 15:44:25.500,-827.1670718193054
2022-11-30 15:44:26.500,-827.2962260246277
2022-11-30 15:44:27.500,-827.17538022995
2022-11-30 15:44:28.500,-827.3045339584351
2022-11-30 15:44:29.500,-827.1836881637573
2022-11-30 15:44:30.500,-827.3128418922424
2022-11-30 15:44:31.500,-827.1919960975647
2022-11-30 15:44:32.500,-827.3211498260498
2022-11-30 15:44:33.500,-827.2003040313721
2022-11-30 15:44:34.500,-827.3294582366943
2022-11-30 15:44:35.500,-827.2086119651794
2022-11-30 15:44:36.500,-827.3377661705017
2022-11-30 15:44:37.500,-827.2169198989868
2022-11-30 15:44:38.500,-827.3460741043091
2022-11-30 15:44:39.500,-827.2252283096313
2022-11-30 15:44:40.500,-827.3543820381165
2022-11-30 15:44:41.500,-827.2335362434387
2022-11-30 15:44:42.500,-827.3626899719238
2022-11-30 15:44:43.500,-827.4918441772461
2022-11-30 15:44:44.500,-827.3709983825684
2022-11-30 15:44:45.500,-827.2501521110535
2022-11-30 15:44:46.500,-827.3793063163757
2022-11-30 15:44:47.500,-827.2584600448608
2022-11-30 15:44:48.500,-827.3876142501831
2022-11-30 15:44:49.500,-827.2667679786682
2022-11-30 15:44:50.500,-827.3959221839905
2022-11-30 15:44:51.500,-827.5250763893127
2022-11-30 15:44:52.500,-827.4042301177979
2022-11-30 15:44:53.500,-827.2833843231201
2022-11-30 15:44:54.500,-827.4125380516052
2022-11-30 15:44:55.500,-827.2916922569275
2022-11-30 15:44:56.500,-827.4208459854126
2022-11-30 15:44:57.500,-827.3000001907349
2022-11-30 15:44:58.500,-827.4291543960571
2022-11-30 15:44:59.500,-827.5583081245422
2022-11-30 15:45:00.500,-827.4373512268066
2022-11-30 15:45:01.500,-827.3162837028503
2022-11-30 15:45:02.500,-827.4452157020569
2022-11-30 15:45:03.500,-827.3241477012634
2022-11-30 15:45:04.500,-827.4530801773071
2022-11-30 15:45:05.500,-827.3320121765137
2022-11-30 15:45:06.500,-827.4609446525574
2022-11-30 15:45:07.500,-827.3398766517639
2022-11-30 15:45:08.500,-827.4688091278076
2022-11-30 15:45:09.500,-827.3477411270142
2022-11-30 15:45:10.500,-827.7266731262207
2022-11-30 15:45:11.500,-827.3556056022644
2022-11-30 15:45:12.500,-827.234537601471
2022-11-30 15:45:13.500,-827.3634700775146
2022-11-30 15:45:14.500,-827.2424020767212
2022-11-30 15:45:15.500,-827.3713340759277
2022-11-30 15:45:16.500,-827.2502665519714
2022-11-30 15:45:17.500,-827.379198551178
2022-11-30 15:45:18.500,-827.2581310272217
2022-11-30 15:45:19.500,-827.6370630264282
2022-11-30 15:45:20.500,-827.2659950256348
2022-11-30 15:45:21.500,-827.1449275016785
2022-11-30 15:45:22.500,-827.273859500885
2022-11-30 15:45:23.500,-827.4027919769287
2022-11-30 15:45:24.500,-827.2817239761353
2022-11-30 15:45:25.500,-827.410656452179
2022-11-30 15:45:26.500,-827.2895884513855
2022-11-30 15:45:27.500,-827.168520450592
2022-11-30 15:45:28.500,-827.2974529266357
2022-11-30 15:45:29.500,-827.1763849258423
2022-11-30 15:45:30.500,-827.305317401886
2022-11-30 15:45:31.500,-827.1842494010925
2022-11-30 15:45:32.500,-827.3131818771362
2022-11-30 15:45:33.500,-827.1921138763428
2022-11-30 15:45:34.500,-827.3210458755493
2022-11-30 15:45:35.500,-827.199978351593
2022-11-30 15:45:36.500,-827.5789103507996
2022-11-30 15:45:37.500,-827.2078423500061
2022-11-30 15:45:38.500,-827.0867748260498
2022-11-30 15:45:39.500,-827.2157068252563
2022-11-30 15:45:40.500,-827.0946393013
2022-11-30 15:45:41.500,-827.2235713005066
2022-11-30 15:45:42.500,-827.1025037765503
2022-11-30 15:45:43.500,-827.2314357757568
2022-11-30 15:45:44.500,-827.1103677749634
2022-11-30 15:45:45.500,-827.2393002510071
2022-11-30 15:45:46.500,-827.1182322502136
2022-11-30 15:45:47.500,-827.2471647262573
2022-11-30 15:45:48.500,-827.1260967254639
2022-11-30 15:45:49.500,-827.2550292015076
2022-11-30 15:45:50.500,-827.1339612007141
2022-11-30 15:45:51.500,-827.5128931999207
2022-11-30 15:45:52.500,-827.1418256759644
2022-11-30 15:45:53.500,-827.0207576751709
2022-11-30 15:45:54.500,-827.1496901512146
2022-11-30 15:45:55.500,-827.0286221504211
2022-11-30 15:45:56.500,-827.1575546264648
2022-11-30 15:45:57.500,-827.0364866256714
2022-11-30 15:45:58.500,-827.1654186248779
2022-11-30 15:45:59.500,-827.0443511009216
2022-11-30 15:46:00.500,-827.1731662750244
2022-11-30 15:46:01.500,-827.0518641471863
2022-11-30 15:46:02.500,-827.1805624961853
2022-11-30 15:46:03.500,-827.0592608451843
2022-11-30 15:46:04.500,-827.1879591941833
2022-11-30 15:46:05.500,-827.0666575431824
2022-11-30 15:46:06.500,-827.1953554153442
2022-11-30 15:46:07.500,-827.0740537643433
2022-11-30 15:46:08.500,-826.9527521133423
2022-11-30 15:46:09.500,-827.0814504623413
2022-11-30 15:46:10.500,-826.9601488113403
2022-11-30 15:46:11.500,-827.0888466835022
2022-11-30 15:46:12.500,-826.9675450325012
2022-11-30 15:46:13.500,-827.0962433815002
2022-11-30 15:46:14.500,-826.9749417304993
2022-11-30 15:46:15.500,-827.3536396026611
2022-11-30 15:46:16.500,-826.9823379516602
2022-11-30 15:46:17.500,-826.8610363006592
2022-11-30 15:46:18.500,-826.9897346496582
2022-11-30 15:46:19.500,-827.1184325218201
2022-11-30 15:46:20.500,-826.9971308708191
2022-11-30 15:46:21.500,-827.1258292198181
2022-11-30 15:46:22.500,-827.0045275688171
2022-11-30 15:46:23.500,-826.8832259178162
2022-11-30 15:46:24.500,-827.011923789978
2022-11-30 15:46:25.500,-826.890622138977
2022-11-30 15:46:26.500,-827.0193204879761
2022-11-30 15:46:27.500,-826.8980188369751
2022-11-30 15:46:28.500,-827.026716709137
2022-11-30 15:46:29.500,-826.905415058136
2022-11-30 15:46:30.500,-827.034113407135
2022-11-30 15:46:31.500,-826.912811756134
2022-11-30 15:46:32.500,-826.7915096282959
2022-11-30 15:46:33.500,-826.9202079772949
2022-11-30 15:46:34.500,-827.048906326294
2022-11-30 15:46:35.500,-826.927604675293
2022-11-30 15:46:36.500,-827.0563025474548
2022-11-30 15:46:37.500,-826.9350008964539
2022-11-30 15:46:38.500,-826.8136992454529
2022-11-30 15:46:39.500,-826.9423975944519
2022-11-30 15:46:40.500,-826.8210959434509
2022-11-30 15:46:41.500,-826.9497938156128
2022-11-30 15:46:42.500,-826.8284921646118
2022-11-30 15:46:43.500,-826.9571905136108
2022-11-30 15:46:44.500,-826.8358888626099
2022-11-30 15:46:45.500,-826.9645872116089
2022-11-30 15:46:46.500,-826.8432850837708
2022-11-30 15:46:47.500,-826.7219834327698
2022-11-30 15:46:48.500,-826.8506817817688
2022-11-30 15:46:49.500,-826.9793801307678
2022-11-30 15:46:50.500,-826.8580780029297
2022-11-30 15:46:51.500,-826.9867763519287
2022-11-30 15:46:52.500,-826.8654747009277
2022-11-30 15:46:53.500,-826.7441730499268
2022-11-30 15:46:54.500,-826.8728709220886
2022-11-30 15:46:55.500,-826.7515692710876
2022-11-30 15:46:56.500,-826.8802676200867
2022-11-30 15:46:57.500,-826.7589659690857
2022-11-30 15:46:58.500,-826.8876643180847
2022-11-30 15:46:59.500,-826.7663621902466
2022-11-30 15:47:00.500,-826.8949556350708
2022-11-30 15:47:01.500,-826.7734446525574
2022-11-30 15:47:02.500,-826.6519331932068
2022-11-30 15:47:03.500,-826.7804217338562
2022-11-30 15:47:04.500,-826.6589102745056
2022-11-30 15:47:05.500,-826.7873992919922
2022-11-30 15:47:06.500,-826.9158878326416
2022-11-30 15:47:07.500,-826.794376373291
2022-11-30 15:47:08.500,-826.6728649139404
2022-11-30 15:47:09.500,-826.801353931427
2022-11-30 15:47:10.500,-826.6798424720764
2022-11-30 15:47:11.500,-826.8083310127258
2022-11-30 15:47:12.500,-826.6868195533752
2022-11-30 15:47:13.500,-826.8153085708618
2022-11-30 15:47:14.500,-826.6937971115112
2022-11-30 15:47:15.500,-826.8222856521606
2022-11-30 15:47:16.500,-826.7007741928101
2022-11-30 15:47:17.500,-826.8292632102966
2022-11-30 15:47:18.500,-826.707751750946
2022-11-30 15:47:19.500,-826.8362402915955
2022-11-30 15:47:20.500,-826.7147288322449
2022-11-30 15:47:21.500,-826.8432178497314
2022-11-30 15:47:22.500,-826.7217063903809
2022-11-30 15:47:23.500,-826.6001949310303
2022-11-30 15:47:24.500,-826.7286834716797
2022-11-30 15:47:25.500,-826.6071724891663
2022-11-30 15:47:26.500,-826.7356610298157
2022-11-30 15:47:27.500,-826.6141495704651
2022-11-30 15:47:28.500,-826.7426381111145
2022-11-30 15:47:29.500,-826.6211271286011
2022-11-30 15:47:30.500,-826.7496156692505
2022-11-30 15:47:31.500,-826.6281042098999
2022-11-30 15:47:32.500,-826.7565927505493
2022-11-30 15:47:33.500,-826.6350817680359
2022-11-30 15:47:34.500,-826.7635703086853
2022-11-30 15:47:35.500,-826.6420588493347
2022-11-30 15:47:36.500,-826.7705473899841
2022-11-30 15:47:37.500,-826.6490364074707
2022-11-30 15:47:38.500,-826.5275249481201
2022-11-30 15:47:39.500,-826.6560134887695
2022-11-30 15:47:40.500,-826.534502029419
2022-11-30 15:47:41.500,-826.6629910469055
2022-11-30 15:47:42.500,-826.5414795875549
2022-11-30 15:47:43.500,-826.6699681282043
2022-11-30 15:47:44.500,-826.5484566688538
2022-11-30 15:47:45.500,-826.6769456863403
2022-11-30 15:47:46.500,-826.5554342269897
2022-11-30 15:47:47.500,-826.6839227676392
2022-11-30 15:47:48.500,-826.5624113082886
2022-11-30 15:47:49.500,-826.6909003257751
2022-11-30 15:47:50.500,-826.5693888664246
2022-11-30 15:47:51.500,-826.697877407074
2022-11-30 15:47:52.500,-826.5763659477234
2022-11-30 15:47:53.500,-826.95485496521
2022-11-30 15:47:54.500,-826.5833435058594
2022-11-30 15:47:55.500,-826.4618320465088
2022-11-30 15:47:56.500,-826.5903205871582
2022-11-30 15:47:57.500,-826.4688096046448
2022-11-30 15:47:58.500,-826.5972981452942
2022-11-30 15:47:59.500,-826.4757866859436
2022-11-30 15:48:00.500,-826.6041646003723
2022-11-30 15:48:01.500,-826.4824314117432
2022-11-30 15:48:02.500,-826.610698223114
2022-11-30 15:48:03.500,-826.488965511322
2022-11-30 15:48:04.500,-826.6172323226929
2022-11-30 15:48:05.500,-826.4954991340637
2022-11-30 15:48:06.500,-826.6237664222717
2022-11-30 15:48:07.500,-826.5020332336426
2022-11-30 15:48:08.500,-826.3803000450134
2022-11-30 15:48:09.500,-826.5085673332214
2022-11-30 15:48:10.500,-826.3868341445923
2022-11-30 15:48:11.500,-826.5151009559631
2022-11-30 15:48:12.500,-826.6433682441711
2022-11-30 15:48:13.500,-826.521635055542
2022-11-30 15:48:14.500,-826.3999018669128
2022-11-30 15:48:15.500,-826.5281686782837
2022-11-30 15:48:16.500,-826.4064359664917
2022-11-30 15:48:17.500,-826.5347027778625
2022-11-30 15:48:18.500,-826.4129695892334
2022-11-30 15:48:19.500,-826.5412368774414
2022-11-30 15:48:20.500,-826.4195036888123
2022-11-30 15:48:21.500,-826.7977705001831
2022-11-30 15:48:22.500,-826.4260377883911
2022-11-30 15:48:23.500,-826.554304599762
2022-11-30 15:48:24.500,-826.4325714111328
2022-11-30 15:48:25.500,-826.5608386993408
2022-11-30 15:48:26.500,-826.4391055107117
2022-11-30 15:48:27.500,-826.5673723220825
2022-11-30 15:48:28.500,-826.4456391334534
2022-11-30 15:48:29.500,-826.3239064216614
2022-11-30 15:48:30.500,-826.4521732330322
2022-11-30 15:48:31.500,-826.3304400444031
2022-11-30 15:48:32.500,-826.4587073326111
2022-11-30 15:48:33.500,-826.3369741439819
2022-11-30 15:48:34.500,-826.4652409553528
2022-11-30 15:48:35.500,-826.3435082435608
2022-11-30 15:48:36.500,-826.4717750549316
2022-11-30 15:48:37.500,-826.3500418663025
2022-11-30 15:48:38.500,-826.4783091545105
2022-11-30 15:48:39.500,-826.3565759658813
2022-11-30 15:48:40.500,-826.4848427772522
2022-11-30 15:48:41.500,-826.363109588623
2022-11-30 15:48:42.500,-826.741376876831
2022-11-30 15:48:43.500,-826.3696436882019
2022-11-30 15:48:44.500,-826.2479104995728
2022-11-30 15:48:45.500,-826.3761777877808
2022-11-30 15:48:46.500,-826.2544445991516
2022-11-30 15:48:47.500,-826.3827114105225
2022-11-30 15:48:48.500,-826.5109786987305
2022-11-30 15:48:49.500,-826.3892455101013
2022-11-30 15:48:50.500,-826.2675123214722
2022-11-30 15:48:51.500,-826.3957796096802
2022-11-30 15:48:52.500,-826.274046421051
2022-11-30 15:48:53.500,-826.4023132324219
2022-11-30 15:48:54.500,-826.2805800437927
2022-11-30 15:48:55.500,-826.4088473320007